INTELSAT 16 (IS-16)

Last updated on Sun Apr 12 2026 00:02:52 GMT+0000 (Coordinated Universal Time)

1 36397U 10006A 26101.50561066 -.00000243 00000+0 00000+0 0 9992 2 36397 0.0398 43.1326 0002150 2.8249 259.5904 1.00271845 58984
UTC large
Height (km)
Speed (km/s)
/
Latitude / Longitude
Inclination (degrees)
Orbital Period (minutes)
Azimuth
Elevation
Range (km)
Doppler Factor

Next 0 passes for location: London (51.5072 / 0.1276)

Sorry there are no passes over London.
INTELSAT 16 (IS-16)